DELTA 1 DEB, 14883

Orbit data source: Space-Track

DELTA 1 DEB, 14883 is space debris in SSO originally from a launch on Tue, 06 Nov 1973 UTC launched from the Air Force Western Test Range (AFWTR). Debris objects in space refer to the collection of defunct objects orbiting the Earth. Examples of debris include non-operational satellites, rocket bodies, and fragments generated from explosions, collisions, or faulty payload assembly.

Loading next visibility...
Identifier
14883, 1973-086GS
Orbit
SSO
Country
Flag of USUS
Related business
Manufacturer
Unknown
Mission
Spacecraft
Bus & Motor
Unknown
Mass
Unknown
Launch date (UTC)
1973-11-06 (52 years ago)
Launch vehicle
Unknown
Launch site
Air Force Western Test Range (AFWTR)
Object type
Payload
Rocket body
Debris
Shape & HBR
Unknown shape, 0.1 m
Radar Cross Section
Small (<0.1 m²)

Expand to show TLE details & history
Last TLE update: 16 hours ago

TLE from 16 hours ago
0 DELTA 1 DEB
1 14883U 73086GS  25292.09801642 -.00000530  00000-0 -55387-2 0  9998
2 14883 102.0108 151.3277 0246644 212.5442 307.4426 12.00146661598678
Epoch: 2025-10-19T02:21Z
TLE epoch observation values (Epoch: 2025-10-19T02:21:08.618Z)
Latitude
21.80005°
Longitude
-86.92008°
Altitude
1,564.8 km
Speed
7.139 km/s
True Right ascension
22h 24m 44s
True Declination
21° 41' 38"
Sunlit
Object was in full shadow at epoch
Visualization orbit readout
Latitude
Unknown
Longitude
Unknown
Altitude
Unknown
Speed
Unknown
Apparent Right ascension
Unknown
Apparent Declination
Unknown
Sunlit
N/A
Visualization observer readout
Local Sidereal Time
13:37:39
Azimuth
Unknown
Elevation
Unknown
Doppler factor
Unknown
Orbital elements
Apogee altitude
1,876.525 km
Perigee altitude
1,479.134 km
Semi-major axis
8,055.966 km
Eccentricity
0.02466
Inclination
102.0108°
RAAN
151.3277°
Arg. of periapsis
212.5442°
True anomaly
305.15637°
Mean anomaly
307.4426°
Eccentric anomaly
306.30374°
Mean motion
3.0017 °/min
Orbital period
119.93 mins
BSTAR
-0.0055387
Loading maneuver chart data...
Computing Atmospheric mass density...
Loading historical data...
Loading historical data...
Loading historical data...
Loading historical data...
Loading historical data...
Loading historical data...
Loading historical data...

Documentation

Showing up to 5 results
|